Location: A�t �Alizem
(31.2076°N, 8.7872°W)
Time: 20:18:00
(UTC+00:00)

deb Explorer IX - Pass Details

Date: 22 June 2021
Orbit: 541 x 1234 km, 38.9° (Epoch: 01 August)

Event Time Altitude Azimuth Distance (km) Brightness Sun altitude
Rises 04:00:47 0° 293° (WNW) 3,371 ? -16.8°
Reaches altitude 10° 04:03:12 10° 299° (WNW) 2,539 ? -16.4°
Maximum altitude 04:09:12 51° 15° (NNE) 1,241 ? -15.4°
Drops below altitude 10° 04:16:21 10° 90° (E) 3,006 ? -14.3°
Sets 04:19:25 0° 95° (E) 4,041 ? -13.8°
